CZ-6A DEB, 54617

Orbit data source: Space-Track

CZ-6A DEB, 54617 is space debris in SSO originally from a launch on Fri, 11 Nov 2022 UTC launched from the Taiyaun Space Center, China (TSC). Debris objects in space refer to the collection of defunct objects orbiting the Earth. Examples of debris include non-operational satellites, rocket bodies, and fragments generated from explosions, collisions, or faulty payload assembly.

Loading next visibility...
Identifier
54617, 2022-151NT
Orbit
SSO
Country
Flag of CNCN / PRC
Related business
Manufacturer
SAST
Mission
Spacecraft
Bus & Motor
Unknown
Mass
Unknown
Launch date (UTC)
2022-11-11 (4 years ago)
Launch vehicle
Unknown
Launch site
Taiyaun Space Center, China (TSC)
Object type
Payload
Rocket body
Debris
Shape & HBR
Unknown shape, 0.1 m
Radar Cross Section
Medium (>0.1 m² and <1 m²)

Expand to show TLE details & history
Last TLE update: 21 hours ago

TLE from 21 hours ago
0 CZ-6A DEB
1 54617U 22151NT  26235.47182301  .00001280  00000-0  61902-3 0  9990
2 54617  98.8185 250.9230 0026702 114.3276 246.0692 14.20123794194158
Epoch: 2026-08-23T11:19Z
TLE epoch observation values (Epoch: 2026-08-23T11:19:25.508Z)
Latitude
-0.00004°
Longitude
109.29933°
Altitude
835.692 km
Speed
7.431 km/s
True Right ascension
16h 43m 41s
True Declination
0° 00' 00"
Sunlit
Object was in daylight at epoch
Visualization orbit readout
Latitude
Unknown
Longitude
Unknown
Altitude
Unknown
Speed
Unknown
Apparent Right ascension
Unknown
Apparent Declination
Unknown
Sunlit
N/A
Visualization observer readout
Local Sidereal Time
23:56:00
Azimuth
Unknown
Elevation
Unknown
Doppler factor
Unknown
Orbital elements
Apogee altitude
841.324 km
Perigee altitude
802.872 km
Semi-major axis
7,200.235 km
Eccentricity
0.00267
Inclination
98.8185°
RAAN
250.923°
Arg. of periapsis
114.3276°
True anomaly
245.7899°
Mean anomaly
246.0692°
Eccentric anomaly
245.92951°
Mean motion
3.55241 °/min
Orbital period
101.34 mins
BSTAR
0.00061902
Loading maneuver chart data...
Computing Atmospheric mass density...
Loading historical data...
Loading historical data...
Loading historical data...
Loading historical data...
Loading historical data...
Loading historical data...
Loading historical data...

Documentation

Showing up to 5 results
|